[[{"header":{"parameterUnit":"m.s-1","parameterCategory":1,"la1":30.2992,"la2":30.254,"lo1":-89.0895,"lo2":-89.0443,"dy":0.0025,"dx":0.0025,"nx":19,"ny":19,"refTime":"2026-03-18T09:00:00:Z","depth":0,"parameterNumber":2,"parameterNumberName":"U-component_of_WINDS"},"data":[0,0,0,0.1619,0.1618,0.1584,0.1584,0.1532,0.1531,0,0,0,0,0,0,0,0,0,0,0,0.1625,0.1624,0.1619,0.1618,0.1584,0.1584,0.1532,0.1531,0,0,0,0,0,0,0,0,0,0,0,0.1625,0.1624,0.1624,0.1618,0.1584,0.1584,0.1532,0.1561,0,0,0,0,0,0,0,0,0,0,0.1595,0.1596,0.1625,0.1624,0.1618,0.1584,0.1584,0.1562,0.1559,0.1544,0,0.1529,0,0.1529,0.1527,0.1527,0,0,0,0.1622,0.1599,0.1594,0.1624,0.1618,0.1584,0.1601,0.156,0.1557,0.1539,0.1529,0.1527,0.1528,0.1527,0.1526,0.1427,0.1427,0,0,0.1624,0.1616,0.1596,0.1591,0.1597,0.1602,0.1599,0.1558,0.1546,0.1529,0.1526,0.1528,0.1526,0.1526,0.1428,0.1427,0,0,0,0.1627,0.1617,0.1613,0.1593,0.1588,0.1601,0.1598,0.1548,0.1548,0.1525,0.1527,0.1526,0.1525,0.1429,0.1428,0.139,0,0,0,0.1628,0.1619,0.1614,0.1609,0.1588,0.1568,0.1589,0.155,0.1546,0.1527,0.1526,0.1525,0.1429,0.1428,0.1392,0.1373,0,0,0,0.1629,0.162,0.1613,0.1609,0.1594,0.1569,0.1566,0.155,0.1547,0.1527,0.1525,0.143,0.1428,0.1395,0.1377,0.1344,0,0,0,0.1627,0.1581,0.1612,0.1561,0.1594,0.1545,0.1566,0.153,0.1508,0.1526,0.1429,0.1428,0.1395,0.1379,0.1347,0.1316,0.1302,0,0,0.1565,0.1573,0.1543,0.157,0.1514,0.1551,0.1489,0.1476,0.1481,0.1445,0.1442,0.1391,0.1377,0.1345,0.1228,0.1218,0,0,0,0.1521,0.1499,0.1486,0.1465,0.1453,0.1441,0.1439,0.1434,0.1403,0.1461,0.1371,0.1363,0.1344,0.133,0.132,0.1304,0.1421,0.1421,0.1421,0.1423,0.143,0.1381,0.1383,0.1362,0.1359,0.1342,0.1335,0.1349,0.1328,0.1317,0.1246,0.1228,0.1222,0.1205,0.1301,0.1301,0.1301,0.1301,0.1331,0.1302,0.132,0.1279,0.1286,0.1252,0.1245,0.1256,0.1224,0.1255,0.1239,0.1272,0.1209,0.1195,0.1298,0.1299,0.1299,0.1299,0.1299,0.1268,0.1255,0.1249,0.1218,0.1192,0.1196,0.1164,0.1172,0.118,0.1164,0.1153,0.1153,0.1155,0.1158,0.1157,0.1157,0.1157,0.1157,0.1157,0.1205,0.1199,0.1172,0.1154,0.114,0.1123,0.1117,0.1103,0.109,0.1099,0.1098,0.1114,0.1202,0.1224,0.1153,0.1153,0.1154,0.1154,0.1154,0.1111,0.1133,0.109,0.1076,0.1054,0.1027,0.1037,0.1008,0.0998,0.0981,0.1,0.1063,0.1073,0.108,0.1098,0.0999,0.0999,0.0999,0.0999,0.1057,0.1062,0.1019,0.0996,0.0974,0.0978,0.0927,0.092,0.0917,0.0911,0.0926,0.0951,0.0958,0.0963,0.0973,0.099,0.0865,0.0865,0.0865,0.0999,0.1002,0.0958,0.0955,0.0938,0.0923,0.0874,0.0846,0.0847,0.086,0.0906,0.0911,0.0951,0.0964,0.0979,0.0994,0.1026,0,0]},{"header":{"parameterUnit":"m.s-1","parameterCategory":1,"la1":30.2992,"la2":30.254,"lo1":-89.0895,"lo2":-89.0443,"dy":0.0025,"dx":0.0025,"nx":19,"ny":19,"refTime":"2026-03-18T09:00:00:Z","depth":0,"parameterNumber":3,"parameterNumberName":"V-component_of_WINDS"},"data":[0,0,0,0.9033,0.9032,0.9003,0.9003,0.8961,0.8961,0,0,0,0,0,0,0,0,0,0,0,0.9039,0.9038,0.9033,0.9032,0.9003,0.9003,0.8961,0.8961,0,0,0,0,0,0,0,0,0,0,0,0.9039,0.9038,0.9038,0.9032,0.9003,0.9003,0.8961,0.8985,0,0,0,0,0,0,0,0,0,0,0.9013,0.9016,0.9038,0.9038,0.9032,0.9003,0.9003,0.8986,0.8983,0.8972,0,0.8962,0,0.8961,0.8957,0.8957,0,0,0,0.9034,0.9019,0.9013,0.9038,0.9031,0.9003,0.9017,0.8984,0.8981,0.8968,0.8961,0.896,0.896,0.8957,0.8957,0.8888,0.8887,0,0,0.9035,0.9032,0.9015,0.9011,0.9016,0.9018,0.9016,0.8983,0.8974,0.8961,0.8959,0.8959,0.8957,0.8956,0.8888,0.8887,0,0,0,0.9039,0.9033,0.9028,0.9013,0.9008,0.9017,0.9015,0.8976,0.8975,0.8958,0.8959,0.8957,0.8956,0.8888,0.8888,0.8864,0,0,0,0.904,0.9035,0.9029,0.9027,0.9009,0.8992,0.9008,0.8977,0.8973,0.8959,0.8957,0.8956,0.8889,0.8888,0.8865,0.8852,0,0,0,0.9041,0.9035,0.903,0.9026,0.9014,0.8992,0.8989,0.8976,0.8973,0.8957,0.8955,0.8889,0.8888,0.8867,0.8855,0.8832,0,0,0,0.9042,0.9009,0.903,0.8993,0.9014,0.8978,0.899,0.8963,0.8946,0.8956,0.8889,0.8888,0.8867,0.8856,0.8834,0.8811,0.8802,0,0,0.8998,0.9004,0.8983,0.9,0.8959,0.8983,0.8939,0.8927,0.8928,0.8901,0.8899,0.8865,0.8855,0.8832,0.8755,0.8748,0,0,0,0.8967,0.8952,0.8942,0.8926,0.8917,0.8907,0.8903,0.8898,0.8875,0.8914,0.8851,0.8846,0.8833,0.8822,0.8816,0.8804,0.8883,0.8883,0.8884,0.89,0.8904,0.8869,0.887,0.8855,0.885,0.8838,0.8831,0.884,0.8825,0.8816,0.8769,0.8757,0.8752,0.874,0.8806,0.8806,0.8806,0.8806,0.8835,0.8813,0.8827,0.8797,0.8802,0.8777,0.8772,0.8779,0.8756,0.8776,0.8765,0.8785,0.8744,0.8733,0.8804,0.8805,0.8805,0.8805,0.8805,0.879,0.878,0.8776,0.8754,0.8736,0.8739,0.8716,0.8721,0.8726,0.8715,0.8706,0.8706,0.8706,0.8711,0.8711,0.871,0.871,0.871,0.871,0.8744,0.874,0.8721,0.8708,0.8699,0.8687,0.8683,0.8674,0.8664,0.867,0.867,0.8679,0.874,0.8754,0.8707,0.8708,0.8708,0.8708,0.8709,0.8674,0.8691,0.866,0.8651,0.8637,0.8618,0.8626,0.8607,0.86,0.8588,0.8601,0.8645,0.8651,0.8655,0.8667,0.8601,0.8601,0.8601,0.8601,0.8634,0.8638,0.8608,0.8593,0.8578,0.8583,0.8547,0.8544,0.8543,0.8539,0.855,0.8566,0.8571,0.8573,0.858,0.8591,0.8507,0.8507,0.8507,0.8591,0.8594,0.8563,0.8563,0.8552,0.8543,0.8509,0.849,0.8493,0.8503,0.8535,0.8539,0.8566,0.8575,0.8583,0.8594,0.8614,0,0]}]]